Weather History for KMDQ - April, 2013

Change the Weather History Date:

Tuesday, April 2, 2013

  Actual Average (KHSV) Record (KHSV)
Temperature  
Mean Temperature 44 °F 58 °F  
Max Temperature 50 °F 70 °F 86 °F (1963)
Min Temperature 37 °F 46 °F 25 °F (1924)
Degree Days  
Heating Degree Days 22 8  
Month to date heating degree days 16  
Since 1 July heating degree days 2836  
Cooling Degree Days 0 1  
Month to date cooling degree days 2  
Year to date cooling degree days 16  
Moisture  
Dew Point 25 °F    
Average Humidity 49    
Maximum Humidity 70    
Minimum Humidity 28    
Precipitation  
Precipitation 0.00 in 0.15 in 2.47 in (1920)
Month to date precipitation 0.31  
Year to date precipitation 15.25  
Snow  
Snow 0.00 in - - ()
Month to date snowfall  
Since 1 July snowfall  
Snow Depth -    
Sea Level Pressure  
Sea Level Pressure 30.19 in    
Wind  
Wind Speed 6 mph (NNE)    
Max Wind Speed 9 mph    
Max Gust Speed -    
Visibility 10 miles    
Events      
T = Trace of Precipitation, MM = Missing Value Source: NWS Daily Summary

Daily Weather History Graph

Daily Weather History Graph

Search for Another Location

Airport or City:

Trip Planner

Search our weather history database for the weather conditions in past years. The results will help you decide how hot, cold, wet, or windy it might be!

Date:

Astronomy

Apr. 02, 2013 Rise Set
Actual Time 6:31 AM CDT 7:08 PM CDT
Civil Twilight 6:05 AM CDT 7:33 PM CDT
Nautical Twilight 5:35 AM CDT 8:04 PM CDT
Astronomical Twilight 5:05 AM CDT 8:34 PM CDT
Moon 1:03 AM CDT (4/2) 11:31 AM CDT (4/2)
Length of Visible Light 13h 28m
Length of Day
12h 37m
Waning Gibbous, 55% of the Moon is Illuminated
Apr 2
Waning Gibbous
Apr 2
Last Quarter
Apr 10
New
Apr 18
First Quarter
Apr 25
Full

Hourly Weather History & Observations

Time (CDT) Temp. Windchill Dew Point Humidity Pressure Visibility Wind Dir Wind Speed Gust Speed Precip Events Conditions
12:15 AM 48.2 °F - 33.8 °F 58% 30.12 in 10.0 mi North 6.9 mph - N/A   Clear
12:35 AM 46.4 °F 45.2 °F 33.8 °F 62% 30.12 in 10.0 mi North 3.5 mph - N/A   Clear
12:55 AM 44.6 °F 42.2 °F 33.8 °F 66% 30.12 in 10.0 mi North 4.6 mph - N/A   Clear
1:15 AM 46.4 °F 45.2 °F 32.0 °F 57% 30.12 in 10.0 mi North 3.5 mph - N/A   Clear
1:35 AM 42.8 °F 39.3 °F 32.0 °F 66% 30.12 in 10.0 mi North 5.8 mph - N/A   Clear
1:55 AM 42.8 °F 38.0 °F 32.0 °F 66% 30.13 in 10.0 mi North 8.1 mph - N/A   Clear
2:15 AM 44.6 °F 41.4 °F 32.0 °F 61% 30.12 in 10.0 mi North 5.8 mph - N/A   Scattered Clouds
2:35 AM 42.8 °F 38.6 °F 30.2 °F 61% 30.13 in 10.0 mi North 6.9 mph - N/A   Clear
2:55 AM 42.8 °F 40.1 °F 30.2 °F 61% 30.14 in 10.0 mi North 4.6 mph - N/A   Clear
3:15 AM 41.0 °F 36.4 °F 30.2 °F 65% 30.14 in 10.0 mi North 6.9 mph - N/A   Clear
3:35 AM 41.0 °F 35.8 °F 30.2 °F 65% 30.14 in 10.0 mi North 8.1 mph - N/A   Clear
3:55 AM 41.0 °F 37.1 °F 28.4 °F 61% 30.14 in 10.0 mi North 5.8 mph - N/A   Clear
4:15 AM 41.0 °F 35.8 °F 28.4 °F 61% 30.17 in 10.0 mi North 8.1 mph - N/A   Clear
4:35 AM 41.0 °F 37.1 °F 28.4 °F 61% 30.17 in 10.0 mi North 5.8 mph - N/A   Clear
4:55 AM 39.2 °F 35.9 °F 28.4 °F 65% 30.18 in 10.0 mi North 4.6 mph - N/A   Clear
5:15 AM 41.0 °F 39.0 °F 26.6 °F 57% 30.19 in 10.0 mi North 3.5 mph - N/A   Clear
5:35 AM 37.4 °F 33.8 °F 28.4 °F 70% 30.18 in 10.0 mi North 4.6 mph - N/A   Clear
5:55 AM 37.4 °F 32.8 °F 28.4 °F 70% 30.19 in 10.0 mi North 5.8 mph - N/A   Clear
6:15 AM 37.4 °F 33.8 °F 28.4 °F 70% 30.20 in 10.0 mi North 4.6 mph - N/A   Clear
6:35 AM 37.4 °F - 26.6 °F 65% 30.20 in 10.0 mi Calm Calm - N/A   Clear
6:55 AM 37.4 °F 33.8 °F 28.4 °F 70% 30.22 in 10.0 mi North 4.6 mph - N/A   Clear
7:15 AM 39.2 °F 37.0 °F 26.6 °F 61% 30.22 in 10.0 mi North 3.5 mph - N/A   Scattered Clouds
7:35 AM 41.0 °F 36.4 °F 23.0 °F 49% 30.22 in 10.0 mi NNE 6.9 mph - N/A   Overcast
7:55 AM 41.0 °F 35.8 °F 23.0 °F 49% 30.22 in 10.0 mi NNE 8.1 mph - N/A   Overcast
8:15 AM 42.8 °F 39.3 °F 21.2 °F 42% 30.23 in 10.0 mi NE 5.8 mph - N/A   Overcast
8:35 AM 42.8 °F 38.0 °F 21.2 °F 42% 30.23 in 10.0 mi NNE 8.1 mph - N/A   Overcast
8:55 AM 42.8 °F 39.3 °F 21.2 °F 42% 30.23 in 10.0 mi NNE 5.8 mph - N/A   Mostly Cloudy
9:35 AM 44.6 °F 40.2 °F 21.2 °F 39% 30.24 in 10.0 mi NE 8.1 mph - N/A   Mostly Cloudy
9:55 AM 44.6 °F 40.2 °F 21.2 °F 39% 30.25 in 10.0 mi NNE 8.1 mph - N/A   Mostly Cloudy
10:15 AM 46.4 °F 42.4 °F 21.2 °F 37% 30.25 in 10.0 mi NE 8.1 mph - N/A   Overcast
10:35 AM 46.4 °F 43.5 °F 19.4 °F 34% 30.24 in 10.0 mi NE 5.8 mph - N/A   Overcast
10:55 AM 46.4 °F 41.9 °F 21.2 °F 37% 30.24 in 10.0 mi NNE 9.2 mph - N/A   Overcast
11:15 AM 46.4 °F 42.9 °F 19.4 °F 34% 30.24 in 10.0 mi NNE 6.9 mph - N/A   Overcast
11:35 AM 48.2 °F - 19.4 °F 32% 30.24 in 10.0 mi North 5.8 mph - N/A   Overcast
11:55 AM 50.0 °F - 17.6 °F 28% 30.24 in 10.0 mi NNE 8.1 mph - N/A   Overcast
12:35 PM 48.2 °F - 19.4 °F 32% 30.24 in 10.0 mi North 6.9 mph - N/A   Overcast
12:55 PM 46.4 °F 43.5 °F 19.4 °F 34% 30.22 in 10.0 mi ENE 5.8 mph - N/A   Overcast
1:15 PM 48.2 °F - 21.2 °F 34% 30.22 in 10.0 mi NE 4.6 mph - N/A   Overcast
3:35 PM 50.0 °F - 19.4 °F 30% 30.19 in 10.0 mi North 3.5 mph - N/A   Overcast
7:15 PM 46.4 °F 42.9 °F 23.0 °F 40% 30.19 in 10.0 mi North 6.9 mph - N/A   Overcast
7:35 PM 46.4 °F 44.3 °F 21.2 °F 37% 30.19 in 10.0 mi North 4.6 mph - N/A   Overcast
7:55 PM 46.4 °F 44.3 °F 23.0 °F 40% 30.19 in 10.0 mi North 4.6 mph - N/A   Overcast
8:15 PM 46.4 °F 43.5 °F 26.6 °F 46% 30.20 in 10.0 mi North 5.8 mph - N/A   Overcast
8:35 PM 46.4 °F 44.3 °F 23.0 °F 40% 30.19 in 10.0 mi North 4.6 mph - N/A   Overcast
8:55 PM 46.4 °F 43.5 °F 23.0 °F 40% 30.19 in 10.0 mi NNE 5.8 mph - N/A   Overcast
9:15 PM 46.4 °F 43.5 °F 23.0 °F 40% 30.21 in 10.0 mi North 5.8 mph - N/A   Overcast
9:35 PM 46.4 °F 43.5 °F 23.0 °F 40% 30.21 in 10.0 mi NNE 5.8 mph - N/A   Overcast
9:55 PM 46.4 °F 43.5 °F 21.2 °F 37% 30.22 in 10.0 mi NNE 5.8 mph - N/A   Overcast
10:15 PM 46.4 °F 43.5 °F 21.2 °F 37% 30.22 in 10.0 mi North 5.8 mph - N/A   Overcast
10:35 PM 44.6 °F 40.2 °F 21.2 °F 39% 30.23 in 10.0 mi North 8.1 mph - N/A   Overcast
10:55 PM 44.6 °F 41.4 °F 23.0 °F 43% 30.22 in 10.0 mi North 5.8 mph - N/A   Overcast
11:15 PM 44.6 °F 40.7 °F 23.0 °F 43% 30.22 in 10.0 mi NNE 6.9 mph - N/A   Overcast
11:35 PM 44.6 °F 39.7 °F 24.8 °F 46% 30.22 in 10.0 mi North 9.2 mph - N/A   Overcast
11:55 PM 44.6 °F 42.2 °F 26.6 °F 49% 30.23 in 10.0 mi North 4.6 mph - N/A   Overcast